Probability
6 6 6 5 4 3 4 5 5 3 1 0 0 0 0 0 0 0 0 0 0 0 1 2 3 1 1 2 3 3 3 3 2 1 0 0 0 0 1 2 1 1 1
5 5 4 4 3 3 3 4 5 3 1 0 0 0 0 0 0 0 0 0 0 0 1 2 3 2 2 3 3 3 3 3 3 2 1 0 0 0 1 1 1 1 2
4 4 3 3 3 3 3 3 3 2 1 0 0 0 0 0 0 0 0 0 0 0 1 2 3 3 3 4 4 4 4 3 3 3 2 1 1 0 0 0 0 1 2
3 3 3 3 3 3 3 3 3 2 0 0 0 0 0 0 0 0 0 0 0 0 1 2 3 4 3 4 4 5 4 4 3 3 3 2 1 1 0 0 0 0 1
3 3 2 2 3 3 3 3 3 2 1 0 0 0 0 0 0 0 0 0 0 0 0 1 2 2 2 1 2 3 3 3 3 3 3 3 2 1 1 0 0 0 0
4 3 1 1 2 3 3 3 3 3 1 0 0 0 0 0 0 0 0 0 0 0 0 0 1 1 0 0 0 1 1 2 3 3 3 3 2 1 1 0 0 0 0
5 3 1 0 1 2 3 3 3 3 2 0 0 0 0 0 0 0 0 0 0 0 0 0 0 0 0 0 0 0 0 1 2 3 4 4 3 2 1 0 0 0 0
6 4 2 1 1 2 3 3 3 3 2 0 0 0 0 0 0 0 0 0 0 0 0 0 0 0 0 0 0 0 0 0 1 3 5 5 4 3 2 1 0 0 0
6 5 3 1 1 2 2 3 3 2 1 0 0 0 0 0 0 0 0 0 0 0 0 0 0 0 0 0 0 0 0 0 0 2 4 5 5 4 3 2 1 0 0
5 5 4 1 0 1 1 1 2 1 1 0 0 0 0 0 0 0 0 0 0 0 0 0 0 0 0 0 0 0 0 0 0 0 2 3 5 4 4 3 2 1 0
4 5 4 1 0 0 0 1 1 1 0 0 0 0 0 0 0 0 0 0 0 0 0 0 0 0 0 0 0 0 0 0 0 0 0 1 3 4 5 4 4 2 1
4 4 3 1 0 0 0 0 1 0 0 0 0 0 0 0 0 0 0 0 0 0 0 0 0 0 0 0 0 0 0 0 0 0 0 0 1 2 5 6 5 4 3
3 3 2 0 0 0 0 1 1 1 0 0 0 0 0 0 0 0 0 0 0 0 0 0 0 0 0 0 0 0 0 0 0 0 0 0 0 1 3 5 6 5 4
2 2 1 0 0 0 0 1 1 1 0 0 0 0 0 0 0 0 0 0 0 0 0 0 0 0 0 0 0 0 0 0 0 0 0 0 0 1 2 3 4 4 4
1 1 0 0 0 0 0 0 0 0 0 0 0 0 0 0 0 0 0 0 0 0 0 0 0 0 0 0 0 0 0 0 0 0 0 0 0 0 1 1 1 2 2
0 0 0 0 0 0 0 0 0 0 0 0 0 0 0 0 0 0 0 0 0 0 0 0 0 0 0 0 0 0 0 0 0 0 0 0 0 0 0 0 0 0 1
0 0 1 0 0 0 0 0 0 0 0 0 0 0 0 0 0 0 0 0 0 0 0 0 0 0 0 0 0 0 0 0 0 0 0 0 0 0 0 0 0 0 0
0 0 0 0 0 0 0 0 0 0 0 0 0 0 0 0 0 0 0 0 0 0 0 0 0 0 0 0 0 0 0 0 0 0 0 0 0 0 0 0 0 0 0
0 0 0 0 0 0 0 0 0 0 0 0 0 0 0 0 0 0 0 0 0 0 0 0 0 0 0 0 0 0 0 0 0 0 0 0 0 0 0 0 0 0 0
0 0 0 0 0 0 0 0 0 0 0 0 0 0 0 0 0 0 0 0 0 0 0 0 0 0 0 0 0 0 0 0 0 0 0 0 0 0 0 0 0 0 0
0 0 0 0 0 0 0 0 0 0 0 0 0 0 0 0 0 0 0 0 0 0 0 0 0 0 0 0 0 0 0 0 0 0 0 0 0 0 0 0 0 0 0
0 0 0 0 0 0 0 0 0 0 0 0 0 0 0 0 0 0 0 0 0 0 0 0 0 0 0 0 0 0 0 0 0 0 0 0 0 0 0 0 0 0 0
0 0 0 0 0 0 0 0 0 0 0 0 0 0 0 0 0 0 0 0 0 0 0 0 0 0 0 0 0 0 0 0 0 0 0 0 0 0 0 0 0 0 0
0 0 0 0 0 0 0 0 0 0 0 0 0 0 0 0 0 0 0 0 0 0 0 0 0 0 0 0 0 0 0 0 0 0 0 0 0 0 0 0 0 0 0
0 0 0 0 0 0 0 0 0 0 0 0 0 0 0 0 0 0 0 0 0 0 0 0 0 0 0 0 0 0 0 0 0 0 0 0 0 0 0 0 0 0 0
0 0 0 0 0 0 0 0 0 0 0 0 0 0 0 0 0 0 0 0 0 0 0 0 0 0 0 0 0 0 0 0 0 0 0 0 0 0 0 0 0 0 0
Wind_Speed
1 1 1 1 0 1 1 1 1 1 1 1 1 1 1 2 2 2 2 5 6 7 8 8 8 7 7 6 6 6 6 6 6 6 6 6 6 6 5 6 6 7 7
1 1 1 1 1 1 1 2 2 2 2 1 1 2 2 2 2 3 3 4 6 7 8 8 8 8 7 7 7 7 7 7 7 7 7 7 6 6 6 6 7 7 7
1 1 1 1 2 1 1 1 1 1 1 1 2 2 2 2 3 3 3 2 3 5 7 8 7 8 7 8 8 8 7 8 8 7 7 7 7 7 6 6 7 7 8
1 1 1 2 2 1 1 1 2 1 1 2 1 2 2 2 3 3 3 3 2 2 4 6 7 7 7 8 8 8 8 8 8 8 8 8 8 8 7 7 7 8 8
2 1 2 2 1 1 1 2 1 2 2 2 2 2 1 2 3 3 3 3 2 2 2 4 5 6 7 8 8 9 8 9 9 9 9 9 9 8 8 8 8 8 9
2 2 2 2 2 1 1 2 2 2 2 2 1 2 2 3 2 2 3 2 2 2 2 2 2 3 5 7 8 9 9 9 9 9 9 9 9 9 8 9 9 9 9
2 2 2 2 2 2 2 2 2 2 1 1 0 2 2 2 2 2 1 1 2 3 2 2 2 2 2 5 7 9 9 9 9 10 9 9 9 10 9 9 10 10 10
2 2 2 2 2 2 2 3 2 2 1 2 1 1 2 2 1 2 2 2 2 2 2 2 2 2 2 2 4 7 9 9 9 10 10 9 9 10 9 10 10 10 10
2 3 3 3 3 3 3 4 4 4 3 3 2 2 2 3 3 2 3 2 2 2 2 2 2 2 3 2 3 5 7 9 10 10 10 10 10 11 10 10 10 11 11
3 3 3 3 3 3 3 4 3 3 4 3 2 2 2 2 2 3 2 2 2 3 3 3 3 3 3 3 3 5 7 8 9 10 10 11 10 11 10 10 10 11 11
3 3 3 3 3 3 4 3 3 3 3 4 3 2 1 1 2 2 4 3 3 3 3 3 3 3 3 3 3 5 7 8 9 10 10 10 11 11 10 10 10 10 11
2 3 3 3 3 3 4 4 4 4 4 4 3 3 2 2 2 2 3 4 4 3 3 3 3 3 3 3 4 6 6 7 8 9 10 10 11 12 10 10 10 11 11
2 3 3 3 3 3 3 3 3 4 4 4 4 3 3 3 2 2 2 3 4 3 2 2 3 3 3 2 3 6 6 7 8 9 9 9 10 11 11 10 10 11 11
3 3 3 3 3 3 3 3 3 3 3 4 4 3 2 2 2 2 2 2 3 3 3 3 2 2 2 2 4 6 4 8 8 9 9 9 10 10 10 10 10 9 9
3 3 3 3 3 3 3 3 2 3 2 3 2 2 2 2 1 2 2 3 3 4 4 3 2 2 2 2 4 3 3 7 8 9 9 9 9 10 9 9 8 8 8
3 3 3 3 3 3 3 2 2 2 2 2 2 2 2 1 1 1 2 2 2 3 4 3 3 2 2 3 5 4 4 8 9 9 9 9 9 7 7 8 9 8 8
3 3 3 3 3 3 2 2 2 2 2 2 1 2 2 2 1 1 1 1 2 2 4 4 2 2 2 3 3 3 3 3 4 8 8 9 7 6 6 8 8 7 7
4 3 3 3 3 3 2 2 2 2 2 2 2 2 2 1 2 1 1 2 2 2 3 4 3 2 3 3 3 3 3 3 2 5 6 5 5 6 6 6 6 6 7
4 3 3 3 3 3 3 2 2 2 2 2 2 2 2 2 2 1 2 2 2 2 1 2 3 2 2 2 2 3 3 2 3 3 4 3 3 4 5 5 6 7 7
3 3 3 3 3 3 2 2 2 2 2 2 2 2 2 2 2 2 2 2 2 1 1 2 2 2 2 2 1 2 3 2 3 3 3 3 3 4 5 6 6 6 6
2 2 2 2 2 2 2 2 2 2 2 1 1 1 1 2 3 2 1 2 2 1 1 1 2 2 2 1 2 1 2 2 3 2 1 1 2 2 3 4 5 6 7
2 1 1 2 2 2 3 2 1 2 2 1 1 1 1 2 2 1 2 2 1 1 1 1 1 2 3 2 1 1 1 2 3 1 1 2 1 2 2 2 5 7 7
0 0 1 1 1 2 2 2 1 1 1 1 1 1 0 1 1 1 2 3 2 3 3 2 2 3 2 2 1 2 2 2 2 2 1 2 1 2 2 3 7 7 7
0 0 0 0 0 1 2 1 1 1 1 0 0 1 1 0 1 1 1 1 1 2 3 2 1 2 2 1 2 2 1 1 1 1 0 1 2 2 3 2 5 6 7
1 1 0 1 0 1 2 2 2 2 1 1 0 0 0 1 1 1 1 1 2 2 3 3 3 2 3 2 1 1 0 1 1 1 1 1 1 2 2 2 3 6 7
1 1 1 1 1 1 2 3 3 1 2 1 1 0 1 1 0 1 0 1 0 1 2 2 3 3 3 2 2 1 1 0 0 1 1 0 0 2 3 2 2 2 4
Wind_Direction
221 203 185 175 206 198 197 188 171 173 179 190 205 212 235 243 249 254 267 272 274 269 261 258 257 257 257 253 253 252 256 261 265 273 283 274 274 275 286 294 296 298 298
216 220 207 200 207 206 210 210 200 194 199 204 224 231 238 238 243 253 260 271 272 269 266 263 261 260 260 260 257 258 258 261 267 269 281 277 272 277 278 286 293 295 300
220 228 233 226 219 214 210 208 204 184 195 216 238 245 247 247 245 247 254 257 268 273 270 266 268 265 261 260 261 262 265 266 266 271 273 279 271 271 269 279 284 291 294
233 220 231 243 232 209 198 205 208 206 214 221 243 251 256 265 263 255 251 248 253 269 274 272 271 270 273 268 262 262 265 270 271 273 271 275 270 266 266 273 280 286 290
248 232 243 244 238 216 205 222 221 213 226 234 246 256 255 261 264 264 256 251 248 255 258 274 278 278 275 277 275 267 265 267 271 273 276 273 273 266 268 272 278 282 286
243 236 246 248 224 224 224 212 231 221 217 218 266 290 277 267 258 246 248 252 259 259 250 255 267 278 277 278 281 280 272 266 268 272 278 272 274 268 267 271 277 281 284
241 229 249 246 230 223 233 228 230 223 212 171 81 319 306 272 255 248 247 255 258 258 248 250 251 256 270 279 280 276 276 275 270 271 273 274 276 273 266 271 276 279 282
250 242 236 241 237 233 235 231 225 215 217 188 156 340 309 305 287 264 256 248 251 256 256 261 250 251 256 260 273 275 274 277 280 276 274 275 278 275 266 268 272 277 281
252 243 235 235 238 229 233 234 221 213 217 219 197 179 195 243 302 270 252 249 248 255 252 247 251 252 251 255 259 267 275 278 279 282 280 277 276 274 271 272 275 278 281
254 252 243 235 235 235 237 240 233 232 214 215 232 235 228 210 231 284 282 259 256 254 245 251 252 256 252 245 250 260 270 279 280 279 283 283 277 273 271 275 278 280 283
258 255 252 242 243 246 243 238 245 238 229 219 212 220 258 275 245 241 273 279 277 260 246 241 245 252 255 251 245 254 269 275 280 279 280 289 289 280 274 277 281 286 287
268 256 256 245 245 249 248 241 238 238 233 225 222 213 215 220 232 240 256 276 280 280 270 254 248 249 250 253 255 265 271 276 279 279 283 288 293 291 278 277 282 285 289
271 267 269 259 255 253 257 253 246 244 235 225 224 230 230 233 234 249 250 270 281 288 276 267 250 248 249 246 259 268 271 275 278 277 281 285 290 296 288 281 283 285 289
255 253 254 258 263 262 262 258 258 258 246 231 230 231 233 231 228 237 237 250 281 286 275 263 273 248 253 247 260 273 270 274 278 279 282 284 287 294 292 285 284 288 292
259 244 241 248 258 258 257 251 253 263 254 240 227 231 244 248 245 253 244 235 237 271 278 264 265 268 264 265 271 270 263 273 279 280 282 281 281 286 289 291 287 291 295
254 247 239 241 250 252 257 251 254 254 247 244 223 222 250 255 251 258 247 258 255 256 277 281 270 280 284 289 281 282 267 280 281 279 278 276 278 279 287 294 291 291 298
249 248 245 242 246 250 253 251 251 240 243 245 227 214 241 255 244 255 254 255 261 257 272 293 297 303 296 295 295 287 277 270 276 279 280 278 273 279 286 291 291 298 297
244 241 242 240 243 244 239 236 247 242 234 229 219 209 226 249 246 250 249 256 253 254 252 276 294 306 304 305 309 304 304 294 281 294 301 288 286 287 287 291 299 307 310
244 239 237 238 243 240 233 232 234 236 232 231 220 211 220 224 248 252 251 252 252 260 253 263 289 302 304 315 328 326 327 323 313 310 313 321 327 334 333 323 320 319 320
240 237 239 239 246 243 229 224 230 225 211 233 226 214 217 223 238 237 238 235 232 244 261 265 278 297 304 322 336 333 334 342 324 325 333 334 348 351 344 336 334 334 335
245 238 250 260 257 245 227 208 207 189 196 211 211 210 230 244 257 249 241 225 211 216 237 269 286 306 311 319 312 320 320 331 317 309 340 347 350 355 345 338 338 341 341
240 224 237 252 267 267 259 270 268 171 178 182 193 204 247 257 276 299 315 298 254 228 239 263 289 293 296 299 323 310 320 334 316 336 25 332 353 330 331 341 345 345 345
194 223 261 255 269 261 271 279 295 135 142 181 192 190 272 316 352 13 351 351 341 314 302 290 273 282 285 278 270 300 300 298 292 307 334 316 351 328 331 349 350 347 349
91 39 299 353 307 278 303 309 359 87 102 94 187 181 160 71 339 357 27 12 342 327 318 316 270 276 282 253 229 249 266 315 329 327 18 333 350 340 342 346 352 354 1
55 33 10 52 351 311 320 329 3 104 100 89 83 114 130 160 258 332 56 50 7 351 341 343 347 351 352 349 360 71 27 23 347 350 47 88 359 355 351 348 360 11 11
46 26 19 32 19 328 334 4 20 104 108 85 56 66 7 18 309 350 63 124 340 329 351 3 16 23 28 30 23 37 136 96 343 318 15 61 339 356 348 348 354 360 10